Back to catalog

STARLINK-6075

AliveCommunicationsVLEO
NORAD 56102·PAYLOAD·🇺🇸 United States

Launched Mar 29, 2023 from Cape Canaveral Space Force Station

Loading…

Next Passes (next 24 hours)

TLE

FreshSource: CelesTrak SupGP

Epoch: Sep 14, 2026, 22:20 UTC

1 56102C 23046K   26257.93104167 -.00033562  00000+0 -12158-2 0  2578
2 56102  42.9988 172.7167 0001136 235.0582 162.7116 15.27590019    17

Track STARLINK-6075 in real time with AllMySat

Download on the App Store